STARLINK-1759, 46340

Orbit data source: Space-Track

STARLINK-1759, 46340 is a payload satellite owned by SpaceX/Seattle (US) in LEO that was launched on Thu, 03 Sep 2020 UTC via an FALCON 9 launch vehicle from the Air Force Eastern Test Range (AFETR). Payload-class satellites include a variety of spacecraft equipped with specific instruments for various scientific and technological missions. These include communications satellites like Starlink; space stations such as the ISS; scientific satellites like the Hubble; Earth observation satellites from companies like Planet Labs, Umbra, and HawkEye 360; GPS; miniature CubeSats for education and research; and military/defense satellites.

Loading next visibility...
Identifier
46340, 2020-062R
Orbit
LEO
Country
Flag of USUS
Related business
Manufacturer
SpaceX/Seattle
Mission
Partially operational Commercial Communications
Bus & Motor
STARLINK, Unknown motor
Mass
260 kg wet, ~248 kg dry
Launch date (UTC)
2020-09-03 (6 years ago)
Launch vehicle
FALCON 9
Launch site
Air Force Eastern Test Range (AFETR)
Object type
Payload
Rocket body
Debris
Shape & HBR
Box + 1 Pan, 10.1 m
Radar Cross Section
13.562 m², Large (>1 m²)

Expand to show TLE details & history
Last TLE update: 2 days ago

TLE from 2 days ago
0 STARLINK-1759
1 46340U 20062R   26144.75629286  .00142680  00000-0  81249-3 0  9997
2 46340  53.0175 315.0814 0003996 236.7270 123.3367 15.78028311316883
Epoch: 2026-05-24T18:09Z
TLE epoch observation values (Epoch: 2026-05-24T18:09:03.703Z)
Latitude
-0.00001°
Longitude
160.46209°
Altitude
338.405 km
Speed
7.706 km/s
True Right ascension
21h 00m 19s
True Declination
0° 00' 00"
Sunlit
Object was in daylight at epoch
Visualization orbit readout
Latitude
Unknown
Longitude
Unknown
Altitude
Unknown
Speed
Unknown
Apparent Right ascension
Unknown
Apparent Declination
Unknown
Sunlit
N/A
Visualization observer readout
Local Sidereal Time
17:06:34
Azimuth
Unknown
Elevation
Unknown
Doppler factor
Unknown
Orbital elements
Apogee altitude
338.996 km
Perigee altitude
333.63 km
Semi-major axis
6,714.45 km
Eccentricity
0.0004
Inclination
53.0175°
RAAN
315.0814°
Arg. of periapsis
236.727°
True anomaly
123.37495°
Mean anomaly
123.3367°
Eccentric anomaly
123.35582°
Mean motion
3.94482 °/min
Orbital period
91.26 mins
BSTAR
0.00081249
Loading maneuver chart data...
Computing Atmospheric mass density...

Documentation

Showing up to 5 results
|